Погода в Коломаке

Украина / Харьковская область     49°50′30″N   35°18′29″E
темп.,
°C
ветер,
м/с
пор.,
м/с
влажн.,
%
обл.,
%
осадки,
мм/ч
давл.,
гПа
погр.,
м
4 декабря, сб
сб423:00+2сз71195100 0.3 1009479
02:00+2сз4895100 1.1 1012476
05:00+2зсз4784100 0.0 1013530
08:000зсз3683100 0.0 1015353
11:00+1сз3465100 0.0 1015390
14:00+2ссз2364100 0.0 1014424
17:00−1ссв227884 0.0 101531
20:00−1всв338268 0.0 101558
5 декабря, вс
вс523:00−2всв338160 0.0 101554
02:00−2всв34825 0.0 101570
05:00−2всв3683100 0.0 1014111
08:00−2всв36825 0.0 1015138
11:00+1всв34593 0.0 1015371
14:00+2в3556100 0.0 1015285
17:00−1в4669100 0.0 101697
20:00−2вюв3575100 0.0 101799
6 декабря, пн
пн623:00−1вюв3578100 0.0 1017143
02:00−1вюв3483100 0.0 1017105
05:000вюв3686100 0.0 1016152
08:000юв3795100 0.0 1017178
11:00+2ююв4788100 0.0 1017306
14:00+2юв4887100 0.1 1016294
17:00+2юв51092100 1.0 1016283
20:00+4юв61393100 1.8 1014402
7 декабря, вт
вт723:00+5ююв61298100 0.7 1013388
02:00+6ююв61397100 1.4 1012367
05:00+7ю61394100 0.2 1011401
08:00+8ю51393100 0.5 1011346
11:00+9ю71693100 0.6 1011588
14:00+9ююв41084100 4.9 1010333
17:00+7юв41086100 0.0 1009209
20:00+7ююв41185100 0.0 1008212
8 декабря, ср
ср823:00+6ююв348878 0.0 100965
02:00+5вюв3485100 0.0 100858
05:00+5в4884100 0.0 1007148
08:00+5в51084100 0.0 1007227
11:00+6вюв5978100 0.0 1006316
14:00+6в5880100 0.0 1005309
17:00+6вюв4987100 0.0 1006249
20:00+5в4794100 0.0 1006130